Time,TemperatureF,DewpointF,PressureIn,WindDirection,WindDirectionDegrees,WindSpeedMPH,WindSpeedGustMPH,Humidity,HourlyPrecipIn,Conditions,Clouds,dailyrainin,SoftwareType,DateUTC
2013-09-01 00:22:00,58.0,54.0,30.21,SW,217,0.0,0.0,88,0.00,,,0.01,,2013-09-01 07:22:00,
2013-09-01 00:52:00,57.0,53.0,30.21,SW,217,0.0,0.0,88,0.00,,,0.01,,2013-09-01 07:52:00,
2013-09-01 01:11:00,56.0,52.0,30.21,SW,217,0.0,0.0,88,0.00,,,0.01,,2013-09-01 08:11:00,
2013-09-01 01:22:00,56.0,53.0,30.21,SW,217,0.0,2.0,89,0.00,,,0.01,,2013-09-01 08:22:00,
2013-09-01 01:52:00,55.0,52.0,30.21,SW,217,0.0,0.0,89,0.00,,,0.01,,2013-09-01 08:52:00,
2013-09-01 02:21:00,54.0,51.0,30.20,SW,217,0.0,0.0,89,0.00,,,0.01,,2013-09-01 09:21:00,
2013-09-01 02:53:00,54.0,51.0,30.19,SW,217,0.0,0.0,89,0.00,,,0.01,,2013-09-01 09:53:00,
2013-09-01 03:23:00,53.0,50.0,30.19,SW,217,0.0,0.0,90,0.00,,,0.01,,2013-09-01 10:23:00,
2013-09-01 03:53:00,53.0,50.0,30.19,SW,217,0.0,0.0,90,0.00,,,0.01,,2013-09-01 10:53:00,
2013-09-01 04:12:00,53.0,50.0,30.19,SW,217,0.0,0.0,90,0.00,,,0.01,,2013-09-01 11:12:00,
2013-09-01 04:22:00,54.0,51.0,30.19,SW,217,0.0,1.0,91,0.00,,,0.01,,2013-09-01 11:22:00,
2013-09-01 04:52:00,54.0,51.0,30.19,SW,217,0.0,0.0,90,0.00,,,0.01,,2013-09-01 11:52:00,
2013-09-01 05:11:00,54.0,51.0,30.19,SW,217,0.0,1.0,90,0.00,,,0.01,,2013-09-01 12:11:00,
2013-09-01 05:22:00,54.0,51.0,30.19,SW,217,0.0,0.0,90,0.00,,,0.01,,2013-09-01 12:22:00,
2013-09-01 05:52:00,55.0,52.0,30.19,SW,217,0.0,1.0,89,0.00,,,0.00,,2013-09-01 12:52:00,
2013-09-01 06:11:00,55.0,52.0,30.19,SW,217,0.0,0.0,88,0.00,,,0.00,,2013-09-01 13:11:00,
2013-09-01 06:21:00,55.0,51.0,30.19,SW,217,0.0,0.0,87,0.00,,,0.00,,2013-09-01 13:21:00,
2013-09-01 06:52:00,54.0,50.0,30.19,SW,217,0.0,0.0,86,0.00,,,0.00,,2013-09-01 13:52:00,
2013-09-01 07:11:00,54.0,50.0,30.19,SW,217,0.0,0.0,86,0.00,,,0.00,,2013-09-01 14:11:00,
2013-09-01 07:21:00,54.0,49.0,30.19,SW,217,0.0,0.0,84,0.00,,,0.00,,2013-09-01 14:21:00,
2013-09-01 07:52:00,54.0,48.0,30.20,SW,217,0.0,0.0,81,0.00,,,0.00,,2013-09-01 14:52:00,
2013-09-01 08:11:00,56.0,49.0,30.20,SW,217,0.0,2.0,78,0.00,,,0.00,,2013-09-01 15:11:00,
2013-09-01 08:22:00,58.0,50.0,30.21,SW,217,0.0,2.0,74,0.00,,,0.00,,2013-09-01 15:22:00,
2013-09-01 08:44:00,59.0,51.0,30.21,SW,217,1.0,4.0,74,0.00,,,0.00,,2013-09-01 15:44:00,
2013-09-01 08:55:00,61.0,51.0,30.21,SW,217,0.0,0.0,69,0.00,,,0.00,,2013-09-01 15:55:00,
2013-09-01 09:14:00,63.0,51.0,30.21,SW,217,0.0,4.0,65,0.00,,,0.00,,2013-09-01 16:14:00,
2013-09-01 09:24:00,67.0,44.0,30.21,SSW,192,1.0,4.0,43,0.00,,,0.00,,2013-09-01 16:24:00,
2013-09-01 09:53:00,69.0,44.0,30.21,WSW,241,0.0,1.0,40,0.00,,,0.00,,2013-09-01 16:53:00,
2013-09-01 10:12:00,69.0,45.0,30.21,SW,219,0.0,2.0,42,0.00,,,0.00,,2013-09-01 17:12:00,
2013-09-01 10:23:00,72.0,44.0,30.22,South,185,0.0,4.0,36,0.00,,,0.00,,2013-09-01 17:23:00,
2013-09-01 10:52:00,72.0,42.0,30.21,SE,138,0.0,2.0,34,0.00,,,0.00,,2013-09-01 17:52:00,
2013-09-01 11:12:00,73.0,42.0,30.21,South,184,0.0,0.0,33,0.00,,,0.00,,2013-09-01 18:12:00,
2013-09-01 11:22:00,74.0,41.0,30.21,ESE,116,0.0,0.0,30,0.00,,,0.00,,2013-09-01 18:22:00,
2013-09-01 11:42:00,75.0,42.0,30.21,SW,216,1.0,4.0,31,0.00,,,0.00,,2013-09-01 18:42:00,
2013-09-01 11:52:00,76.0,42.0,30.21,South,188,0.0,5.0,30,0.00,,,0.00,,2013-09-01 18:52:00,
2013-09-01 12:12:00,77.0,42.0,30.21,SE,137,1.0,4.0,29,0.00,,,0.00,,2013-09-01 19:12:00,
2013-09-01 12:22:00,77.0,41.0,30.21,SW,230,3.0,7.0,28,0.00,,,0.00,,2013-09-01 19:22:00,
2013-09-01 12:52:00,78.0,42.0,30.20,WSW,256,2.0,5.0,28,0.00,,,0.00,,2013-09-01 19:52:00,
2013-09-01 13:12:00,78.0,42.0,30.20,SSE,164,3.0,11.0,28,0.00,,,0.00,,2013-09-01 20:12:00,
2013-09-01 13:21:00,78.0,42.0,30.20,SSW,196,2.0,11.0,28,0.00,,,0.00,,2013-09-01 20:21:00,
2013-09-01 13:42:00,80.0,43.0,30.20,West,261,2.0,9.0,27,0.00,,,0.00,,2013-09-01 20:42:00,
2013-09-01 13:52:00,80.0,42.0,30.20,South,186,3.0,10.0,26,0.00,,,0.00,,2013-09-01 20:52:00,
2013-09-01 14:21:00,80.0,43.0,30.19,West,270,3.0,10.0,27,0.00,,,0.00,,2013-09-01 21:21:00,
2013-09-01 15:53:00,80.0,42.0,30.18,South,179,3.0,12.0,26,0.00,,,0.00,,2013-09-01 22:53:00,
2013-09-01 16:23:00,78.0,41.0,30.18,West,272,3.0,7.0,27,0.00,,,0.00,,2013-09-01 23:23:00,
2013-09-01 16:53:00,78.0,40.0,30.17,SSW,195,2.0,4.0,26,0.00,,,0.00,,2013-09-01 23:53:00,
2013-09-01 17:11:00,78.0,41.0,30.17,SSW,199,4.0,7.0,27,0.00,,,0.00,,2013-09-02 00:11:00,
2013-09-01 17:22:00,77.0,41.0,30.17,SSW,209,3.0,7.0,28,0.00,,,0.00,,2013-09-02 00:22:00,
2013-09-01 17:42:00,75.0,40.0,30.17,South,189,2.0,11.0,28,0.00,,,0.00,,2013-09-02 00:42:00,
2013-09-01 18:12:00,73.0,41.0,30.17,SW,234,4.0,7.0,31,0.00,,,0.00,,2013-09-02 01:12:00,
2013-09-01 18:21:00,71.0,40.0,30.17,SSW,200,1.0,6.0,32,0.00,,,0.00,,2013-09-02 01:21:00,
2013-09-01 18:41:00,71.0,41.0,30.18,SSW,206,1.0,7.0,34,0.00,,,0.00,,2013-09-02 01:41:00,
2013-09-01 18:52:00,70.0,40.0,30.18,SSW,212,1.0,4.0,34,0.00,,,0.00,,2013-09-02 01:52:00,
2013-09-01 19:21:00,69.0,42.0,30.18,SW,233,1.0,4.0,38,0.00,,,0.00,,2013-09-02 02:21:00,
2013-09-01 19:42:00,68.0,43.0,30.18,SW,219,0.0,0.0,40,0.00,,,0.00,,2013-09-02 02:42:00,
2013-09-01 19:52:00,67.0,42.0,30.18,SW,232,0.0,4.0,40,0.00,,,0.00,,2013-09-02 02:52:00,
2013-09-01 20:11:00,67.0,44.0,30.18,SW,232,0.0,0.0,43,0.00,,,0.00,,2013-09-02 03:11:00,
2013-09-01 20:22:00,66.0,44.0,30.18,SSW,209,0.0,0.0,45,0.00,,,0.00,,2013-09-02 03:22:00,
2013-09-01 20:56:00,64.0,42.0,30.19,West,271,0.0,0.0,45,0.00,,,0.00,,2013-09-02 03:56:00,
2013-09-01 21:14:00,64.0,47.0,30.19,West,271,0.0,0.0,54,0.00,,,0.00,,2013-09-02 04:14:00,
2013-09-01 21:54:00,61.0,47.0,30.20,West,271,0.0,0.0,60,0.00,,,0.00,,2013-09-02 04:54:00,
2013-09-01 22:03:00,61.0,47.0,30.20,West,271,0.0,0.0,60,0.00,,,0.00,,2013-09-02 05:03:00,
2013-09-01 22:12:00,61.0,47.0,30.20,West,271,0.0,0.0,60,0.00,,,0.00,,2013-09-02 05:12:00,
2013-09-01 22:23:00,59.0,47.0,30.20,West,271,0.0,0.0,64,0.00,,,0.00,,2013-09-02 05:23:00,
2013-09-01 22:52:00,58.0,46.0,30.20,West,271,0.0,0.0,65,0.00,,,0.00,,2013-09-02 05:52:00,
2013-09-01 23:22:00,57.0,46.0,30.20,West,271,0.0,0.0,66,0.00,,,0.00,,2013-09-02 06:22:00,
2013-09-01 23:42:00,57.0,46.0,30.20,West,271,0.0,1.0,66,0.00,,,0.00,,2013-09-02 06:42:00,
2013-09-01 23:52:00,57.0,46.0,30.20,West,271,0.0,0.0,67,0.00,,,0.00,,2013-09-02 06:52:00,